Flag for Germany Weather past 2 weeks in Husum, Schleswig-Holstein, Germany

Now
43 °F

Quite cool.


Feels Like: 43 °F
Forecast: 41 / 49 °F
Wind: 1 mph from East

Location: Schleswig-Jagel

Current Time: Apr 26, 2015 at 10:04:00 PM

Latest Report: Apr 26, 2015 at 9:20 PM


Visibility: 5 mi

Pressure: 29.74 "Hg

Humidity: 87%

Dew point: 39 °F

Location of HusumLocation

Historic Weather in Husum — Graph

°F

Husum temperature yesterday

Maximum temperature yesterday: 57 °F (at 12:20 PM)
Minimum temperature yesterday: 45 °F (at 2:20 AM)
Average temperature yesterday: 51 °F

Past Weeks' High & Low Weather Summary

 TemperatureHumidityPressure
High64 °F (Apr 20, 4:20 PM)100% (Apr 17, 5:20 AM)30.36 "Hg (Apr 17, 5:20 AM)
Low32 °F (Apr 18, 6:20 AM)25% (Apr 20, 8:20 PM)29.65 "Hg (Apr 25, 3:20 PM)
Average48 °F75%30.09 "Hg
* Reported Apr 11 8:20 PM — Apr 26 8:20 PM, Husum, Weather by CustomWeather, © 2015

Note: Actual official high and low records may vary slightly from our data, if they occured in-between our weather recording intervals... More about our weather records

Advertising

Husum weather history for previous 24 hours

 ConditionsComfort  
Time TempWeatherWind HumidityBarometerVisibility
8:20 PM
Sun, Apr 26
45 °FQuite cool.3 mph81%29.74 "Hg6 mi
7:20 PM45 °FQuite cool.5 mph81%29.74 "Hg6 mi
6:20 PM45 °FQuite cool.8 mph81%29.74 "Hg6 mi
5:20 PM45 °FQuite cool.9 mph87%29.74 "Hg5 mi
4:20 PM43 °FQuite cool.10 mph93%29.74 "Hg4 mi
3:20 PM43 °FQuite cool.12 mph93%29.74 "Hg4 mi
2:20 PM45 °FQuite cool.12 mph81%29.74 "Hg4 mi
1:20 PM45 °FQuite cool.12 mph81%29.74 "Hg3 mi
12:20 PM45 °FQuite cool.12 mph87%29.71 "Hg3 mi
11:20 AM45 °FQuite cool.10 mph93%29.71 "Hg2 mi
10:20 AM45 °FQuite cool.8 mph100%29.71 "Hg2 mi
9:20 AM45 °FQuite cool.10 mph100%29.71 "Hg3 mi
8:20 AM46 °FCool.10 mph100%29.71 "Hg1 mi
7:20 AM48 °FCool.2 mph100%29.68 "Hg1 mi
6:20 AM48 °FCool.3 mph100%29.68 "Hg1 mi
5:20 AM48 °FCool.5 mph100%29.68 "Hg1 mi
4:20 AM50 °FCool.10 mph94%29.68 "Hg2 mi
3:20 AM48 °FCool.9 mph100%29.68 "Hg1 mi
2:20 AM48 °FCool.10 mph100%29.68 "Hg2 mi
1:20 AM50 °FCool.10 mph94%29.68 "Hg3 mi
12:20 AM50 °FCool.8 mph100%29.68 "Hg2 mi
11:20 PM
Sat, Apr 25
50 °FCool.7 mph100%29.68 "Hg2 mi
10:20 PM50 °FCool.7 mph100%29.68 "Hg2 mi
Weather by CustomWeather, © 2015

See weather overviewHow to use our weather pages